Location: Overspoor
(51.4747°N, 5.6641°E)
Time: 01:09:34
(UTC+02:00)

N. Korean satellite - Pass Details

Date: 21 January 2022
Orbit: 438 x 478 km, 97.3° (Epoch: 21 May)

Event Time Altitude Azimuth Distance (km) Brightness Sun altitude
Rises 18:15:19 0° 218° (SW) 2,487 11.2 -10.4°
Reaches altitude 10° 18:18:43 10° 255° (WSW) 1,640 10.8 -10.9°
Maximum altitude 18:19:49 11° 273° (W) 1,578 10.4 -11.0°
Drops below altitude 10° 18:21:00 10° 293° (WNW) 1,667 10.1 -11.2°
Sets 18:24:27 0° 328° (NNW) 2,569 10.4 -11.7°
